Milwaukee, WI

3:44 AM CST on November 22, 2019 (GMT -0600)
Gen Mitchell International

Weather History for KMKE - September, 2019

Change the Weather History Date:

Monday, September 9, 2019

  Actual Average Record
Temperature  
Mean Temperature 66 °F 66 °F  
Max Temperature 72 °F 74 °F 96 °F (1955)
Min Temperature 60 °F 58 °F 40 °F (1883)
Degree Days  
Heating Degree Days 0 2  
Month to date heating degree days 8 14  
Since 1 July heating degree days 10 40  
Cooling Degree Days 1 3  
Month to date cooling degree days 21 35  
Year to date cooling degree days 627 600  
Growing Degree Days 16 (Base 50)    
Moisture  
Dew Point 60 °F    
Average Humidity 82    
Maximum Humidity 87    
Minimum Humidity 73    
Precipitation  
Precipitation T in 0.11 in 1.90 in (1965)
Month to date precipitation 0.27 0.93  
Year to date precipitation 28.68 25.11  
Snow  
Snow 0.00 in 0.00 in 0.00 in (2018)
Month to date snowfall 0.0 0.0  
Since 1 July snowfall 0.0 0.0  
Since 1 September snowfall 0.0 0.0  
Snow Depth 0.00 in    
Sea Level Pressure  
Sea Level Pressure 30.16 in    
Wind  
Wind Speed 7 mph ()    
Max Wind Speed 20 mph    
Max Gust Speed 26 mph    
Visibility 9.6 miles    
Events      
T = Trace of Precipitation, MM = Missing Value Source: Averaged Metar Reports

Daily Weather History Graph

Daily Weather History Graph

Search for Another Location

Airport or City:

Astronomy

Sep. 09, 2019 Rise Set
Actual Time 6:24 AM CDT 7:12 PM CDT
Civil Twilight 5:55 AM CDT 7:41 PM CDT
Nautical Twilight 5:21 AM CDT 8:15 PM CDT
Astronomical Twilight 4:46 AM CDT 8:50 PM CDT
Moon 5:14 PM CDT (9/9) 1:48 AM CDT (9/9)
Length of Visible Light 13h 45m
Length of Day
12h 48m
Waxing Gibbous, 83% of the Moon is Illuminated
Sep 9
Waxing Gibbous
Sep 13
Full
Sep 21
Last Quarter
Sep 28
New
Oct 5
First Quarter

Hourly Weather History & Observations

Time (CDT) Temp. Dew Point Humidity Pressure Visibility Wind Dir Wind Speed Gust Speed Precip Events Conditions
12:52 AM 60.1 °F 55.0 °F 83% 30.17 in 10.0 mi East 3.5 mph - N/A   Overcast
1:52 AM 62.1 °F 55.0 °F 78% 30.17 in 10.0 mi East 6.9 mph - N/A   Overcast
2:52 AM 62.1 °F 55.0 °F 78% 30.18 in 10.0 mi SE 5.8 mph - N/A   Overcast
3:52 AM 62.1 °F 57.0 °F 84% 30.18 in 10.0 mi ESE 5.8 mph - N/A   Overcast
4:24 AM 62.1 °F 57.9 °F 86% 30.18 in 10.0 mi East 5.8 mph - N/A   Overcast
4:35 AM 63.0 °F 57.9 °F 84% 30.18 in 10.0 mi ESE 5.8 mph - N/A   Overcast
4:52 AM 63.0 °F 57.9 °F 84% 30.19 in 10.0 mi East 4.6 mph - N/A   Overcast
5:13 AM 63.0 °F 57.9 °F 84% 30.19 in 10.0 mi ESE 4.6 mph - N/A   Overcast
5:52 AM 63.0 °F 57.9 °F 84% 30.20 in 10.0 mi ESE 5.8 mph - N/A   Overcast
6:52 AM 63.0 °F 57.9 °F 84% 30.20 in 10.0 mi ESE 6.9 mph - N/A   Overcast
7:38 AM 64.0 °F 57.9 °F 80% 30.20 in 10.0 mi ESE 6.9 mph - N/A   Overcast
7:52 AM 64.0 °F 57.9 °F 80% 30.20 in 10.0 mi ESE 8.1 mph - N/A   Overcast
8:52 AM 64.0 °F 59.0 °F 84% 30.22 in 10.0 mi ESE 12.7 mph - N/A   Overcast
9:52 AM 64.0 °F 59.0 °F 84% 30.21 in 5.0 mi ESE 11.5 mph - N/A   Haze
10:52 AM 66.0 °F 61.0 °F 84% 30.20 in 10.0 mi ESE 9.2 mph - 0.00 in   Overcast
11:44 AM 64.9 °F 61.0 °F 87% 30.21 in 8.0 mi SE 9.2 mph - 0.00 in   Overcast
11:52 AM 64.9 °F 61.0 °F 87% 30.21 in 6.0 mi SE 10.4 mph - 0.00 in   Overcast
12:48 PM 66.2 °F 60.8 °F 83% 30.21 in 10.0 mi SE 10.4 mph - N/A   Overcast
12:52 PM 66.0 °F 61.0 °F 84% 30.20 in 10.0 mi ESE 9.2 mph - N/A   Overcast
1:48 PM 66.2 °F 60.8 °F 83% 30.17 in 10.0 mi ESE 15.0 mph - N/A   Mostly Cloudy
1:52 PM 66.9 °F 61.0 °F 81% 30.16 in 10.0 mi ESE 13.8 mph - N/A   Mostly Cloudy
2:20 PM 66.9 °F 61.0 °F 81% 30.15 in 10.0 mi ESE 13.8 mph 25.3 mph N/A   Overcast
2:52 PM 66.0 °F 61.0 °F 84% 30.15 in 10.0 mi ESE 13.8 mph - N/A   Overcast
4:52 PM 68.0 °F 61.0 °F 78% 30.14 in 10.0 mi ESE 10.4 mph - N/A   Overcast
5:15 PM 68.0 °F 61.0 °F 78% 30.13 in 10.0 mi ESE 12.7 mph - N/A   Scattered Clouds
5:52 PM 66.9 °F 61.0 °F 81% 30.11 in 10.0 mi ESE 10.4 mph - N/A   Overcast
7:52 PM 66.9 °F 62.1 °F 84% 30.09 in 10.0 mi ESE 10.4 mph - 0.00 in   Mostly Cloudy
8:52 PM 68.0 °F 63.0 °F 84% 30.08 in 10.0 mi SSE 8.1 mph - N/A   Overcast
9:52 PM 69.1 °F 63.0 °F 81% 30.05 in 10.0 mi SSE 12.7 mph - N/A   Mostly Cloudy
10:52 PM 71.1 °F 63.0 °F 75% 30.04 in 10.0 mi SSE 16.1 mph - N/A   Mostly Cloudy
11:52 PM 71.1 °F 64.0 °F 78% 30.03 in 10.0 mi South 15.0 mph - N/A   Overcast